Wind_Speed
2 1 1 1 3 4 4 3 3 3 4 6 2 0 3 4 2 3 6 5 3 5 4 2 2 2 2 2 2 3 5 2 3 0 0 3 5 3 4 6 6 6 6 6 5 5 6 5 6 6 7 6 5 6 6 7 8 7 6 6 7 9 8 7 8 7 8 7 7 8 8 8 8 8 7 7 8 8 8 8 8 7 6 5 5 5 5 6 7 7 7 6 6 6 5 5 6
3 2 1 2 3 4 2 1 4 3 5 5 3 1 5 6 3 6 7 7 2 4 6 3 4 2 2 4 4 5 1 5 6 4 3 6 7 3 4 5 6 6 6 6 6 5 5 4 3 5 7 5 4 5 5 5 6 5 5 5 7 9 7 6 6 6 6 6 6 6 5 6 6 6 6 6 7 7 8 8 8 7 7 6 5 5 6 6 6 7 7 7 7 7 6 6 6
3 3 2 3 4 4 2 2 5 4 5 5 2 4 5 5 5 5 4 5 6 7 6 4 2 2 2 4 4 5 2 5 6 6 5 7 7 5 6 7 7 5 5 6 6 5 5 2 2 4 4 4 4 5 5 5 4 4 4 4 5 6 5 4 3 3 4 4 4 4 4 5 5 5 6 6 6 6 6 7 7 6 6 6 5 5 6 6 7 7 7 7 7 7 7 7 7
4 3 3 3 3 3 3 4 5 5 5 4 1 5 5 5 5 4 6 7 8 7 5 5 3 0 4 8 3 3 2 4 6 5 6 7 5 7 9 8 7 5 5 6 5 4 2 2 3 3 3 4 4 5 5 5 5 5 5 4 4 4 3 3 2 2 2 2 2 2 3 4 4 5 5 5 6 6 6 6 6 5 5 4 4 4 5 5 6 7 7 7 8 8 7 8 8
2 3 4 4 3 1 3 4 4 6 5 4 2 4 6 4 6 6 7 7 6 5 4 6 4 2 2 6 2 2 0 4 5 4 6 7 6 8 10 9 7 5 6 5 6 5 2 4 4 4 4 5 5 5 5 5 5 5 5 5 5 5 4 4 3 2 2 1 1 1 2 2 3 4 5 5 5 5 5 5 5 5 5 5 4 4 4 5 6 6 6 6 6 8 8 8 9
2 3 4 5 3 1 3 4 4 6 2 4 4 3 5 4 5 8 7 6 6 3 2 5 2 2 3 1 1 1 3 2 5 5 5 8 8 9 10 8 7 6 6 5 5 5 5 6 5 5 5 5 5 5 5 5 5 5 6 6 6 6 5 5 5 4 3 3 2 2 2 2 3 3 4 4 5 5 5 5 5 5 5 5 5 5 5 5 6 7 6 6 6 7 8 8 10
4 3 3 4 3 1 5 6 6 5 2 4 3 3 3 5 6 8 9 5 4 2 2 4 1 1 3 3 2 2 5 2 4 4 5 9 11 11 10 7 7 7 6 6 5 5 7 7 6 6 5 6 6 5 5 4 4 4 4 4 4 4 4 4 4 4 4 4 4 3 3 3 3 3 3 3 3 3 4 4 5 5 6 6 6 6 6 6 6 7 8 8 8 9 9 9 11
5 3 1 3 4 3 6 6 6 5 2 3 1 2 2 4 6 7 8 5 4 6 6 5 3 4 2 3 3 3 6 4 6 6 8 10 12 12 9 7 7 7 7 7 6 7 7 7 7 7 6 6 5 5 4 3 3 2 2 2 2 2 2 3 3 3 3 4 4 4 4 4 4 4 4 4 3 3 3 4 5 5 6 6 7 7 7 7 7 8 9 9 10 10 11 11 12
5 4 1 3 5 4 5 7 6 4 0 2 2 1 2 2 7 6 8 6 3 5 7 7 6 5 2 2 3 5 6 7 9 9 10 10 13 13 10 7 8 9 9 8 8 8 8 8 8 7 7 6 5 4 3 3 2 2 1 1 0 1 1 2 2 2 3 3 3 3 4 4 5 5 5 5 4 4 4 4 5 6 6 7 8 8 8 8 9 10 11 11 11 12 12 12 13
5 4 2 3 5 5 6 6 4 1 1 2 2 3 3 4 6 7 8 7 5 5 5 6 8 8 3 3 3 4 8 11 12 11 11 12 14 14 12 11 10 11 10 10 10 9 9 8 7 7 6 6 5 4 4 3 3 2 1 1 1 0 1 1 1 2 2 2 3 3 4 4 5 6 6 6 5 5 5 5 6 7 7 8 8 9 10 10 11 12 13 14 14 14 14 13 14
4 4 2 4 5 6 5 4 2 1 2 2 3 5 5 6 7 7 8 8 7 6 5 6 6 10 9 7 2 5 11 14 13 13 13 14 15 13 13 14 13 12 12 13 12 10 9 8 7 6 6 6 6 6 6 5 5 4 3 3 2 1 1 1 2 2 2 3 3 3 4 4 5 5 6 6 6 6 6 7 7 8 8 9 9 10 10 11 12 13 14 15 15 16 16 16 16
4 3 3 5 6 5 4 5 5 2 1 4 5 6 5 7 8 8 10 9 8 7 8 9 3 3 9 8 1 7 12 14 14 14 15 16 15 12 12 13 15 14 14 13 12 11 10 9 9 8 7 7 6 6 6 6 5 5 4 4 3 3 3 3 3 4 5 5 5 5 5 5 5 5 5 5 6 6 7 7 8 9 9 10 10 11 11 12 12 13 14 15 15 16 17 17 18
4 3 4 6 4 5 6 6 5 4 4 5 5 7 7 8 10 10 9 9 9 9 8 11 3 1 8 5 3 7 10 14 14 15 17 15 13 13 11 11 14 14 14 13 12 12 10 10 10 9 8 7 6 5 5 5 5 4 4 4 3 4 4 4 5 6 7 7 7 8 8 8 8 8 8 7 7 7 7 7 7 8 8 9 10 11 12 13 13 14 14 15 16 16 17 17 18
4 3 4 5 3 6 6 6 5 5 4 2 5 7 8 8 8 9 8 10 12 6 2 6 5 1 7 6 3 5 10 16 16 16 17 14 13 14 11 11 15 13 13 13 11 12 11 10 10 9 8 7 6 5 4 4 3 3 3 3 3 4 4 5 6 7 8 8 9 9 9 10 10 10 10 10 9 9 9 8 8 8 8 8 9 9 10 11 12 13 14 15 16 17 17 17 18
3 2 3 5 5 6 4 5 5 6 3 6 5 6 8 5 3 8 8 10 6 3 4 4 6 3 3 6 3 2 12 19 18 18 17 14 13 13 12 14 15 14 15 13 12 12 11 11 10 10 9 8 7 6 5 4 3 2 2 2 3 3 4 5 6 6 7 8 9 9 9 10 11 11 11 11 11 11 11 11 11 11 10 10 10 10 10 10 11 11 12 13 14 16 16 17 18
3 3 3 5 6 6 2 3 3 4 3 6 4 4 8 5 3 7 3 4 2 3 4 5 8 5 4 2 1 4 16 21 18 18 16 15 13 11 12 13 12 13 15 14 14 14 13 13 12 11 10 10 8 7 6 5 4 3 2 2 2 2 3 4 4 5 6 7 7 8 9 10 10 10 10 11 11 11 12 12 13 13 13 13 13 13 12 12 12 12 11 12 12 13 14 14 15
2 3 5 5 6 6 1 3 2 2 3 5 6 5 8 6 5 4 2 3 7 4 7 7 8 8 5 2 4 7 18 20 18 18 16 15 13 11 12 12 12 12 15 15 14 15 16 15 13 13 12 11 10 9 8 6 5 4 4 3 2 2 2 3 4 4 5 6 6 7 8 8 8 8 9 9 10 11 11 12 12 13 13 13 14 14 14 14 14 14 14 14 13 12 13 13 13
3 3 5 6 6 5 1 4 4 3 5 1 6 7 8 6 6 5 1 7 11 9 10 9 9 9 4 6 6 11 19 18 19 19 18 16 14 14 14 15 15 14 15 16 14 16 16 16 15 14 13 12 11 10 8 8 6 6 5 4 3 2 2 2 3 4 5 5 6 7 7 7 7 8 8 8 9 9 10 11 11 12 13 13 14 14 14 15 15 16 16 17 17 16 17 16 15
5 4 5 6 6 3 2 5 4 4 6 2 3 6 8 6 5 6 5 10 11 13 13 11 12 13 9 10 11 15 18 18 19 20 20 19 18 18 17 17 17 16 16 16 16 17 16 16 15 13 14 13 11 10 9 9 8 7 7 5 4 3 2 2 3 3 4 4 5 7 7 7 8 8 9 9 10 11 12 12 12 13 14 15 15 16 16 17 17 18 18 19 19 18 18 17 15
5 4 6 5 3 3 2 4 5 5 5 5 4 4 7 6 3 6 6 11 12 15 13 12 14 16 15 14 15 17 18 18 20 21 21 21 20 19 18 18 18 18 18 16 16 17 16 15 16 15 15 13 12 11 11 10 10 8 7 6 5 4 3 2 2 2 3 4 5 6 6 7 8 9 10 11 12 12 13 14 15 15 17 18 18 19 19 20 20 20 21 21 18 17 17 17 16
2 4 7 4 3 4 3 1 3 3 3 7 6 2 6 7 5 7 7 10 12 14 14 15 16 17 17 16 17 18 19 19 21 22 22 22 22 20 19 18 18 17 16 16 15 18 17 16 17 17 16 14 13 12 11 11 11 9 8 7 6 5 3 2 1 2 3 4 5 5 6 8 9 9 10 11 11 12 13 14 14 14 16 17 18 18 18 20 20 18 19 20 17 17 18 17 17
2 7 10 5 2 5 1 2 1 1 1 6 7 6 5 3 6 10 11 11 11 7 6 11 14 14 12 16 18 17 18 19 21 23 23 23 24 22 20 18 17 17 17 17 16 18 19 17 18 18 16 15 14 12 11 11 11 9 8 9 7 5 4 3 1 1 2 3 4 5 6 7 8 7 9 10 10 10 11 12 12 13 14 14 16 15 16 19 17 15 16 17 17 18 18 18 19
5 8 8 6 5 6 2 2 2 1 4 7 7 6 3 4 8 11 14 18 15 4 2 2 5 4 5 16 18 16 18 19 21 25 26 26 26 26 23 20 19 19 18 18 17 18 20 19 19 19 17 17 16 14 13 13 12 10 10 10 8 6 5 3 2 1 1 2 3 4 5 5 5 5 8 9 9 9 10 12 11 12 13 12 15 15 16 19 17 16 16 17 18 18 18 19 18
7 8 7 5 4 7 5 1 3 3 6 7 3 4 5 11 11 8 15 20 19 11 3 3 3 3 7 14 16 17 19 20 23 27 27 27 28 27 25 21 20 19 18 19 18 18 20 20 20 21 18 18 17 16 14 12 12 12 12 10 8 8 6 5 4 3 1 1 1 2 3 3 4 4 6 7 8 9 10 13 11 11 12 11 15 15 16 19 18 17 17 18 20 19 19 18 17
10 10 7 3 3 7 7 3 5 6 7 6 4 7 11 13 9 9 18 19 17 16 10 7 7 7 9 13 15 16 17 19 22 24 25 24 24 25 24 22 20 19 19 20 19 18 21 22 23 22 19 18 17 16 14 11 12 13 12 9 8 9 7 7 6 4 2 1 1 1 2 2 3 4 6 7 8 9 11 12 10 10 12 11 14 15 15 19 18 17 16 18 20 19 19 17 17
6 7 6 5 6 7 7 7 9 8 6 5 7 12 14 9 4 12 23 21 17 17 15 12 10 10 12 13 14 15 16 18 20 22 23 22 22 24 26 24 22 22 21 21 20 19 22 24 25 23 19 17 16 16 13 10 12 12 12 11 10 10 9 8 7 5 4 3 2 1 1 2 3 4 6 7 8 10 10 10 10 10 11 11 15 16 16 18 18 16 15 17 18 18 17 16 16
3 7 8 9 11 9 8 9 10 7 7 9 11 13 12 4 1 12 15 9 11 14 15 15 12 12 14 13 13 14 15 18 21 21 20 21 22 25 27 26 25 23 22 23 22 20 23 25 26 23 20 19 18 16 13 11 11 11 12 12 11 11 10 9 7 6 6 5 4 2 2 2 3 4 6 6 7 9 8 10 11 12 12 13 16 17 18 19 18 16 14 16 17 16 15 15 14
5 7 10 13 13 12 11 12 11 7 6 9 10 11 12 6 6 18 12 3 5 11 12 14 13 12 12 13 13 12 13 17 20 20 20 23 24 25 27 28 27 24 23 24 22 21 24 25 25 22 20 21 20 15 13 12 11 11 13 11 11 12 11 9 8 7 6 5 5 3 2 2 3 4 6 7 8 8 9 11 13 13 13 14 17 18 19 20 17 14 13 15 15 13 14 14 13
6 6 10 13 12 13 15 13 10 9 6 7 6 8 12 13 15 24 16 7 7 9 11 12 13 12 11 12 12 11 12 15 18 20 23 25 25 25 28 28 27 25 23 24 22 22 24 24 24 21 19 22 20 15 14 14 12 14 14 10 11 13 10 9 8 7 6 6 6 4 4 3 3 4 6 8 9 9 10 13 13 13 14 15 18 19 19 18 15 14 13 14 13 12 13 13 13
6 6 7 10 10 12 11 10 8 8 5 7 6 7 10 14 21 23 12 11 11 10 12 12 12 11 11 12 11 11 13 14 18 21 24 25 24 25 27 27 27 26 23 22 23 23 24 25 24 21 19 22 20 15 14 15 14 15 13 11 13 12 10 9 8 8 6 6 6 6 4 4 4 5 7 9 9 10 11 12 13 13 13 16 19 18 18 17 15 14 14 14 13 13 13 13 14
5 5 4 6 9 7 5 8 9 8 4 7 8 7 11 12 16 18 10 12 12 11 12 13 13 12 11 11 12 12 13 15 20 23 24 24 23 24 26 26 27 27 23 22 25 24 23 25 25 23 22 22 21 17 15 16 16 16 13 12 14 13 11 9 8 8 8 7 6 6 6 5 5 7 8 9 9 10 11 12 12 12 14 18 19 18 18 17 14 13 14 15 14 14 14 15 16
6 5 6 7 7 6 6 9 11 8 3 8 10 6 11 15 11 6 8 10 11 11 12 12 13 14 13 12 12 12 13 15 20 23 23 24 24 23 24 26 27 27 26 23 24 24 23 27 28 27 26 24 23 19 18 18 18 17 14 13 15 15 13 10 9 9 9 8 7 6 7 5 6 8 9 9 9 10 11 12 12 13 16 19 19 18 18 15 13 14 15 14 14 15 15 17 17
7 6 8 8 8 9 5 7 9 7 4 10 13 8 9 11 7 3 7 8 9 10 13 13 15 16 14 12 12 12 12 14 17 20 23 24 24 23 23 25 26 27 26 24 25 26 24 27 30 28 26 24 23 22 21 21 19 18 16 16 17 15 14 11 9 10 9 8 7 6 7 6 7 9 9 10 10 11 12 13 13 14 17 18 19 19 17 14 13 14 14 12 13 15 16 17 17
6 6 7 9 11 11 7 3 5 7 6 9 13 12 13 15 13 7 5 8 11 12 15 16 17 17 16 13 12 13 13 14 15 18 23 24 23 23 22 24 25 26 25 24 26 28 25 26 30 28 26 24 23 24 23 21 20 19 17 17 16 15 15 11 9 10 9 8 7 8 8 6 8 9 9 10 11 12 14 14 15 15 17 18 18 17 16 15 13 12 13 14 13 14 15 16 17
10 8 7 9 10 11 12 5 4 10 9 10 12 14 18 19 18 18 14 11 13 15 15 17 19 20 17 14 14 14 14 15 14 17 23 24 22 22 22 22 24 25 25 24 25 27 25 26 30 27 25 24 23 24 23 21 18 17 15 14 15 14 13 12 11 11 9 8 8 9 8 6 8 10 11 12 13 14 14 15 15 14 15 16 16 16 15 13 12 12 14 15 14 14 15 16 17
14 12 8 10 11 11 15 7 5 9 8 10 15 16 18 19 18 18 18 16 16 16 16 16 18 19 15 14 15 14 14 13 12 17 22 23 22 22 22 22 24 24 25 24 25 27 25 26 28 26 24 24 23 22 22 19 17 15 14 13 13 13 12 12 12 12 10 9 10 10 8 7 9 11 12 13 14 15 15 15 14 14 13 13 14 14 13 12 13 14 15 15 14 15 14 14 15
11 10 9 12 12 12 16 8 5 6 5 10 16 17 19 20 19 18 17 17 18 19 19 18 19 17 13 14 15 14 13 9 11 16 19 22 21 22 22 21 23 24 23 25 26 27 26 27 29 27 25 25 23 21 22 20 17 16 15 14 13 13 12 12 13 12 11 10 11 10 8 9 11 12 13 13 14 15 15 14 13 13 11 11 12 13 14 15 16 16 15 14 14 14 14 13 13
10 11 10 11 11 12 15 6 5 6 4 9 14 16 19 18 17 18 18 18 19 20 20 20 21 18 14 15 16 14 9 7 10 13 15 19 20 21 22 21 23 25 24 26 27 26 26 27 29 28 26 25 23 22 23 21 18 16 15 15 13 13 13 12 11 11 11 11 11 9 9 10 12 13 13 13 14 15 14 13 12 12 11 11 13 15 17 17 17 15 14 14 13 13 14 13 12
10 8 7 10 9 11 12 2 6 5 3 8 11 14 17 18 19 19 20 20 18 19 21 20 19 17 15 15 13 10 7 9 10 11 13 16 19 21 21 19 22 25 24 26 27 27 27 25 27 26 24 25 23 22 23 19 17 16 14 14 13 12 12 13 12 12 12 11 10 10 10 11 12 13 13 13 14 15 14 14 14 13 13 13 13 15 16 15 15 14 13 14 13 13 13 12 9
9 7 7 9 8 8 8 2 3 5 7 8 12 12 14 16 18 19 22 21 17 17 19 18 16 15 16 14 10 8 9 11 11 12 12 14 17 19 19 18 21 24 23 25 26 27 27 26 26 25 24 25 23 23 22 17 18 19 17 17 16 13 12 14 14 12 11 10 10 11 11 12 13 13 13 13 14 14 14 15 15 15 14 14 14 15 15 15 15 14 14 14 14 14 13 11 9
9 10 10 11 10 11 10 3 3 7 8 4 9 12 12 12 13 14 14 13 12 13 13 14 15 14 14 13 11 9 9 10 10 13 13 14 16 18 20 19 21 23 23 27 29 29 29 27 25 24 25 26 24 24 23 20 22 23 20 18 17 14 11 11 11 9 10 11 11 12 12 12 12 12 13 14 14 14 15 15 16 16 16 16 15 15 15 15 15 15 15 14 14 14 14 13 10
9 11 14 16 14 14 12 6 7 8 6 1 4 11 8 6 8 8 5 6 7 7 8 12 14 13 11 11 10 9 9 9 9 12 13 14 14 17 19 20 22 23 23 28 31 31 32 29 25 24 24 24 24 26 27 25 24 24 21 18 14 13 11 10 10 9 9 10 10 11 12 12 12 13 14 14 15 15 15 16 16 17 17 17 15 15 15 15 15 16 15 14 14 14 14 14 12
8 4 6 11 13 13 12 9 5 6 7 0 3 8 9 3 4 7 5 6 8 6 8 12 11 10 9 9 7 8 10 9 9 11 13 14 14 15 18 21 23 24 24 29 32 33 34 31 28 26 24 24 25 28 30 28 25 22 20 17 13 12 12 11 11 11 10 10 10 11 12 12 12 13 14 14 15 15 15 15 16 17 17 17 15 15 15 16 16 15 14 14 15 14 13 14 14
5 1 3 2 5 8 8 7 5 6 9 5 4 4 12 8 5 9 9 8 9 8 11 12 11 10 11 11 7 8 10 10 9 10 13 14 14 15 18 21 23 24 24 29 32 33 34 34 32 29 27 27 28 30 31 30 26 21 18 17 13 12 11 10 10 12 12 11 12 12 11 11 12 13 14 14 14 14 14 15 15 16 16 16 15 15 15 16 15 15 15 15 15 14 13 14 14
1 3 3 3 1 2 2 4 6 7 8 7 6 7 10 11 4 11 12 11 11 12 14 14 14 12 11 12 8 7 9 10 10 11 12 13 14 16 19 20 22 24 26 29 32 33 33 34 34 33 32 30 30 31 31 31 27 22 20 18 15 13 12 11 11 12 13 12 12 12 11 11 12 14 15 14 14 14 14 14 15 16 16 15 15 15 16 16 16 16 16 16 15 16 14 14 14
2 4 5 5 3 1 1 4 5 6 8 9 8 10 7 11 3 9 7 8 10 12 12 13 14 12 9 9 6 6 7 8 9 10 12 12 14 17 18 19 21 24 27 29 31 32 32 33 35 36 35 33 32 32 33 31 28 25 23 21 18 16 14 13 12 12 12 11 11 11 11 11 10 11 11 12 13 13 13 14 15 15 15 15 15 16 16 17 17 16 16 16 17 17 16 15 15
4 4 2 2 3 2 2 4 2 5 10 10 12 16 11 10 1 9 6 8 11 10 8 10 10 9 8 6 6 7 7 7 7 8 10 11 13 16 17 18 21 23 24 26 28 31 33 35 37 37 37 35 33 33 34 32 30 28 26 25 23 20 16 15 14 12 11 10 10 10 10 10 9 10 11 11 12 13 14 14 15 16 16 16 15 16 16 16 15 15 16 16 17 17 17 16 16
3 3 2 2 4 2 3 4 2 6 10 5 12 19 17 11 4 6 6 10 13 9 6 9 9 9 7 3 6 6 7 7 8 7 8 9 11 14 16 17 20 22 23 25 27 30 32 35 37 36 37 36 35 35 35 34 32 31 28 27 26 23 20 19 17 14 12 12 12 11 10 10 10 10 11 11 11 12 14 14 16 16 15 14 14 14 15 15 15 16 16 16 16 16 16 16 16
4 4 4 4 5 3 5 5 4 8 7 2 7 11 13 13 10 9 8 7 11 9 6 10 10 9 7 2 6 5 5 6 7 7 7 9 9 11 13 16 20 22 23 26 27 28 31 33 34 34 35 36 37 37 36 35 34 33 30 28 27 25 23 21 20 17 15 14 14 14 13 12 10 10 10 10 10 12 13 15 16 15 14 14 14 15 16 16 16 17 17 17 17 17 17 17 17
8 7 6 5 5 5 6 6 6 9 6 3 5 3 6 9 9 14 18 15 13 9 8 10 9 10 7 3 5 4 5 5 6 7 8 8 9 10 12 16 19 20 23 26 26 28 30 30 32 33 33 34 37 38 38 36 35 34 32 30 28 26 24 23 21 20 18 17 17 16 16 16 13 12 12 12 12 14 15 16 17 17 17 17 16 17 17 16 17 17 17 17 18 18 17 17 18
10 7 6 7 6 6 7 7 8 8 6 1 4 2 5 5 1 9 15 17 15 10 9 10 9 10 7 4 4 4 5 6 5 6 7 9 10 10 12 16 19 20 23 26 26 27 28 29 32 34 32 34 38 39 38 37 35 34 32 30 28 26 25 24 22 21 21 20 19 19 18 17 15 14 14 14 14 16 17 18 19 18 18 18 17 18 17 16 16 16 17 17 18 18 17 18 18
7 5 6 7 6 7 8 9 7 4 7 6 5 4 7 7 5 5 6 8 13 11 11 11 9 10 7 4 5 5 5 6 6 7 8 9 10 10 13 16 18 19 22 25 27 28 30 30 33 34 33 35 39 39 39 38 36 34 32 31 29 26 25 24 23 22 22 22 22 21 19 18 17 15 15 16 16 17 18 18 17 17 18 18 17 17 16 16 15 16 17 17 18 18 18 18 19
5 6 7 4 1 3 7 9 3 1 7 8 5 7 8 10 11 7 10 9 13 12 12 12 11 11 10 7 7 7 7 7 7 7 7 8 9 10 13 16 18 20 23 26 28 30 30 30 32 32 31 34 38 40 39 38 36 34 33 32 30 28 27 26 24 23 23 24 23 21 20 18 17 16 16 17 17 18 18 17 17 17 17 17 17 17 16 16 15 16 17 17 18 18 18 19 19
4 4 4 2 2 1 4 7 4 4 10 9 9 13 11 10 8 8 14 13 14 14 14 12 11 10 9 9 8 8 8 7 7 7 7 8 9 10 13 17 19 21 23 25 26 28 28 28 30 32 31 34 38 38 39 38 37 35 34 33 31 30 29 28 26 24 24 24 23 22 20 18 17 16 16 17 17 17 18 17 17 17 17 17 17 17 17 16 15 16 17 18 19 18 18 20 19
1 2 1 1 2 4 5 6 5 7 9 9 15 18 14 12 8 5 13 15 15 16 15 10 11 11 9 10 10 9 8 7 7 9 8 9 9 10 13 16 17 19 21 22 24 25 25 26 29 30 30 33 37 37 38 37 37 37 35 34 33 31 30 29 27 26 25 25 23 21 19 18 16 15 15 16 16 16 16 16 16 17 16 16 16 16 16 15 15 16 17 18 18 17 19 20 19
0 3 2 1 2 3 5 5 5 7 8 9 14 16 13 10 8 7 11 15 16 16 13 10 11 12 10 9 10 9 8 8 8 9 9 9 9 11 14 16 17 19 20 21 23 24 25 25 28 29 27 31 36 37 38 37 36 37 36 34 33 31 31 30 29 28 27 25 23 21 19 17 16 15 15 15 15 15 15 16 16 16 16 16 15 15 15 14 15 16 17 18 18 18 19 20 20
5 5 6 5 3 1 3 4 6 7 7 7 9 13 14 5 1 5 8 11 12 10 8 9 9 10 9 9 9 9 8 8 8 9 9 8 8 9 13 15 16 18 19 21 22 23 24 24 27 29 27 30 35 36 38 38 37 37 37 35 33 32 31 30 29 29 28 25 23 20 18 17 16 15 15 15 15 15 15 15 15 15 15 15 15 14 14 14 15 17 17 18 18 18 19 20 21
9 9 9 10 8 5 4 7 7 4 5 8 7 11 16 4 6 5 6 5 5 5 5 7 6 8 8 8 9 9 8 9 8 8 8 7 6 7 11 14 16 17 18 20 21 22 24 25 27 28 28 31 35 36 39 40 38 38 38 35 34 33 32 31 30 29 27 25 22 20 18 17 16 16 16 15 15 15 15 14 14 15 15 15 15 15 14 14 15 17 17 18 17 17 19 20 21
Wind_Direction
113 129 75 287 272 281 255 242 253 206 235 264 234 187 160 133 88 178 181 176 217 197 163 75 150 123 110 346 295 298 348 354 353 334 285 79 116 121 122 123 115 105 101 81 81 64 31 45 57 46 52 56 64 66 70 73 71 77 88 91 79 65 63 62 63 62 57 51 50 51 46 43 45 47 42 40 38 32 28 28 25 15 6 353 342 335 325 320 329 335 337 336 329 323 326 334 335
129 169 212 270 254 264 269 199 270 221 225 255 195 162 125 135 185 204 194 184 178 130 142 136 178 183 16 349 323 285 307 55 44 75 83 118 129 130 149 135 116 104 114 95 73 76 51 41 63 54 56 67 78 77 84 87 86 93 97 99 82 70 74 75 70 63 54 46 42 35 24 25 27 25 22 23 26 30 26 24 23 16 12 9 6 356 343 333 333 335 333 331 328 325 325 319 318
156 204 219 247 228 247 292 198 265 270 258 272 144 117 132 164 195 200 180 146 95 101 139 124 155 228 238 243 255 261 233 87 93 101 105 151 147 149 174 158 133 109 124 111 76 79 65 56 112 78 70 79 91 96 97 102 108 109 109 114 99 89 97 97 85 71 58 49 34 10 353 349 347 348 352 355 0 6 9 16 16 11 13 11 10 3 358 349 340 337 332 328 327 327 324 317 313
160 225 240 255 222 225 254 221 260 285 279 294 84 125 158 188 181 147 86 89 92 120 151 145 168 193 237 233 238 294 268 106 103 96 123 161 133 141 174 160 127 105 121 110 81 80 79 146 133 113 109 101 107 109 110 111 111 113 113 119 123 126 126 123 116 99 82 54 18 359 348 337 335 335 338 339 342 345 349 4 359 352 355 352 352 352 356 358 352 347 340 335 333 323 314 318 317
162 239 249 265 250 232 265 251 261 266 282 326 357 130 166 191 163 127 92 98 107 139 163 186 196 96 252 263 284 291 315 101 111 104 114 133 124 147 171 150 121 115 118 109 94 80 111 160 138 134 132 120 120 116 118 117 112 113 110 114 118 125 126 123 119 110 109 75 33 6 350 335 337 336 340 339 341 343 341 346 341 338 333 327 328 330 332 338 343 341 340 340 337 320 312 320 320
218 230 231 256 272 340 267 253 251 245 296 344 334 89 160 184 150 132 116 110 110 120 153 198 208 109 214 253 275 322 54 100 132 119 118 142 159 166 161 140 126 131 125 117 115 113 143 150 140 139 139 135 129 123 118 112 112 110 106 107 107 109 115 112 109 101 95 86 71 39 12 347 340 335 340 342 345 347 344 342 337 334 327 323 321 323 323 323 323 320 319 316 315 309 310 314 310
254 228 195 229 230 238 252 253 265 259 39 11 337 35 161 166 137 136 139 133 137 157 190 204 153 233 210 134 203 82 80 95 115 123 137 152 169 167 150 140 135 137 141 128 136 174 170 156 148 142 140 141 139 137 127 118 114 109 107 102 101 98 94 93 93 88 82 78 73 65 53 26 7 354 350 347 346 344 340 336 332 332 330 327 324 323 324 323 323 317 314 308 304 303 305 305 300
258 262 192 238 225 203 249 259 267 277 50 51 40 22 358 140 149 157 167 172 168 172 190 192 185 246 203 146 220 119 115 103 109 133 132 148 170 166 145 143 141 138 151 147 164 184 180 172 161 152 149 147 144 148 139 141 136 126 122 103 94 76 63 59 56 58 58 55 55 55 54 47 36 25 21 14 1 350 339 330 325 327 328 328 326 325 325 324 324 319 314 308 306 305 305 304 303
230 244 227 251 248 221 245 258 256 272 188 120 128 113 359 149 173 181 187 186 163 173 187 180 187 224 140 178 221 126 152 137 123 135 137 155 168 165 148 148 158 159 162 163 178 183 185 184 175 169 163 161 159 159 152 150 146 145 139 115 92 28 4 5 11 16 21 22 26 26 29 29 27 26 26 26 22 12 358 347 339 335 330 327 325 322 321 320 318 316 313 310 308 308 307 306 305
214 224 255 260 260 251 246 252 241 240 162 153 144 157 175 179 189 197 199 196 180 172 170 169 195 224 254 260 223 119 156 149 142 145 144 161 166 168 162 163 170 169 171 172 179 184 189 189 189 188 181 182 176 173 171 169 170 173 177 172 192 315 325 1 6 9 14 14 16 12 15 13 16 19 19 23 25 24 17 9 0 355 348 340 335 328 324 320 317 315 313 312 310 310 309 309 308
225 203 250 270 252 253 257 269 268 135 128 168 180 163 175 184 195 206 209 207 188 171 147 153 203 231 249 264 242 109 141 151 158 155 151 167 169 167 171 178 175 171 178 179 179 181 187 190 194 199 202 200 192 189 184 183 182 178 179 170 165 151 123 93 83 68 63 54 47 39 33 28 24 22 19 19 17 18 17 15 13 8 3 357 351 344 337 331 324 319 316 314 312 312 310 309 308
246 206 211 255 260 269 300 313 308 322 179 210 200 169 172 183 194 207 210 211 191 189 179 175 203 248 235 253 210 128 149 164 165 158 161 169 165 163 171 182 179 178 182 180 180 182 184 187 192 196 201 203 201 198 188 180 173 166 159 147 138 124 109 98 90 84 82 78 76 71 66 62 54 49 41 33 26 20 14 12 11 9 8 3 0 356 350 343 337 330 324 319 316 313 311 309 307
249 263 242 256 281 293 308 308 304 308 271 232 193 159 167 185 199 211 211 217 208 212 203 186 178 328 243 262 112 149 167 173 165 160 166 165 163 166 162 174 181 181 182 179 183 186 183 186 194 194 190 191 192 195 191 180 169 159 146 131 121 108 97 89 81 77 74 72 71 69 69 67 64 63 59 55 51 44 34 26 18 14 10 4 0 356 352 348 344 339 335 330 325 320 316 312 309
255 284 276 269 286 282 286 285 292 296 287 116 127 146 174 196 208 217 215 226 219 212 184 175 175 214 258 256 164 177 174 169 162 159 163 159 163 168 163 175 183 183 183 183 187 188 186 188 192 191 184 181 180 184 190 184 174 157 134 118 107 95 86 77 69 65 61 60 58 57 56 55 55 52 51 52 49 47 44 38 33 29 21 14 5 357 352 347 343 340 337 334 331 328 323 320 315
270 277 268 267 274 272 251 263 296 292 296 97 127 158 182 202 208 219 224 235 226 110 93 146 182 186 265 236 202 138 159 161 157 156 157 156 160 166 172 182 186 188 189 187 189 190 190 191 191 189 184 181 179 183 190 184 178 158 127 110 92 82 75 66 60 57 54 54 52 49 47 45 43 38 36 34 34 33 31 27 24 23 20 17 11 6 0 353 347 342 338 334 331 328 326 324 320
264 277 252 257 267 270 211 233 284 272 302 96 144 168 187 196 181 220 243 281 292 109 173 186 192 219 307 241 63 94 150 153 152 154 152 155 159 165 178 183 185 191 193 192 194 193 191 193 192 191 189 188 188 191 196 190 186 176 156 137 106 94 78 71 64 59 57 56 53 50 46 44 37 30 27 22 21 19 18 16 13 12 11 8 6 5 2 359 357 352 346 341 337 333 328 325 324
247 254 248 255 257 264 216 223 258 286 342 101 156 179 206 203 172 214 18 288 259 206 205 215 202 230 285 106 99 130 145 148 152 154 155 162 166 173 183 185 185 191 196 195 196 198 197 196 194 195 196 195 197 197 199 193 187 182 173 169 159 137 110 93 75 66 64 59 55 55 52 49 40 30 24 17 15 11 11 9 5 4 3 1 1 1 359 360 360 356 355 352 348 346 344 344 342
225 232 247 257 263 274 322 270 280 314 305 169 163 190 224 218 171 176 159 232 240 235 227 226 220 226 206 120 127 145 146 153 159 163 168 173 179 184 188 191 192 192 194 194 195 198 199 198 197 198 200 199 201 200 198 191 182 181 181 180 177 160 132 102 83 73 64 61 56 55 51 47 42 31 22 15 11 8 8 5 1 2 0 1 0 358 0 2 360 358 358 357 357 358 358 359 351
230 249 255 259 276 310 12 294 285 286 290 285 176 204 227 237 174 157 207 229 221 231 235 222 226 228 194 150 153 157 157 168 172 178 180 182 189 191 192 193 196 195 192 192 192 194 196 199 197 198 203 201 200 198 193 188 181 182 183 180 176 166 150 114 90 74 57 54 49 49 40 31 34 25 13 10 10 8 6 3 2 3 1 1 360 360 2 1 359 359 360 360 2 0 358 356 348
231 246 255 266 309 314 282 268 266 277 289 272 251 209 223 241 181 152 219 246 229 230 232 219 223 227 209 176 166 169 173 180 182 188 190 192 196 196 198 195 197 198 194 191 190 192 192 195 195 198 205 199 194 194 188 185 183 181 182 180 174 172 169 139 97 68 51 43 41 45 30 22 28 17 8 10 12 10 6 3 4 2 0 359 358 2 0 357 359 0 358 0 2 355 353 352 347
218 215 255 298 12 303 280 228 271 283 287 271 263 219 238 238 200 194 227 251 245 239 235 227 223 226 216 181 171 178 181 186 188 194 196 199 201 202 205 202 200 198 193 190 188 191 191 193 197 201 203 196 194 191 187 187 184 180 184 184 178 182 180 154 99 51 34 35 39 38 24 21 26 14 6 11 11 10 6 5 4 359 359 358 357 1 357 356 360 358 354 355 354 349 349 348 344
251 233 256 289 296 281 305 95 340 299 269 267 249 241 249 214 207 221 229 239 247 250 246 237 226 237 224 173 171 180 183 191 191 197 202 202 204 205 207 205 202 197 192 191 188 191 193 194 199 202 201 198 195 188 189 193 186 180 189 188 180 183 182 158 111 48 12 30 39 40 34 26 26 14 3 7 9 9 3 2 2 356 358 357 356 359 355 358 359 354 351 350 348 347 345 342 342
255 249 251 260 257 259 274 94 117 195 241 243 242 258 248 223 240 230 227 235 243 250 53 249 225 250 188 158 168 180 187 195 195 199 202 202 205 205 206 203 200 196 191 192 188 188 191 192 198 201 200 200 197 193 195 196 187 182 193 189 176 179 180 155 143 182 281 24 46 51 54 39 32 18 3 5 6 4 356 357 360 356 356 354 355 357 353 357 358 352 351 348 347 346 342 341 339
242 264 262 250 245 248 259 151 166 212 240 243 265 294 247 240 255 247 236 238 243 245 206 160 154 141 154 160 173 184 191 196 200 203 202 204 206 204 205 203 202 197 190 191 186 185 189 190 197 201 201 203 203 200 197 194 191 193 196 188 180 185 173 161 178 190 214 346 48 59 63 57 36 13 2 7 4 360 353 355 0 356 356 353 353 356 351 354 355 350 348 346 347 345 343 341 335
224 256 275 254 234 246 251 225 217 226 235 244 256 257 248 248 270 273 253 246 244 245 236 201 178 182 186 185 187 189 195 199 203 205 204 208 208 206 206 206 203 197 192 190 186 186 190 192 199 200 199 203 204 201 194 190 196 197 192 183 190 190 174 179 190 178 175 235 269 30 47 48 20 358 355 360 357 354 351 353 358 354 353 350 348 352 349 349 350 347 343 343 344 342 340 337 331
226 265 292 268 255 255 244 235 237 231 225 217 227 245 249 249 297 274 255 251 248 241 240 229 205 207 209 204 200 197 199 202 203 204 205 206 206 207 207 205 204 201 196 190 186 186 189 194 199 199 197 198 199 199 190 188 196 194 190 187 193 189 186 192 183 174 186 207 247 284 338 345 352 342 345 352 350 351 351 350 352 349 348 344 344 348 345 343 345 342 337 337 339 338 335 330 325
324 292 292 271 265 262 241 242 242 231 232 216 221 248 250 205 150 260 254 249 243 230 232 230 219 222 220 215 211 204 204 205 203 200 202 202 204 207 205 205 205 204 196 190 189 187 189 195 198 197 195 196 197 195 187 187 189 189 194 194 193 192 194 191 180 190 199 212 239 260 293 323 346 336 340 346 347 349 347 343 344 343 342 338 340 341 339 340 342 337 330 330 333 330 327 323 317
321 304 293 272 261 254 235 237 235 217 227 211 218 256 252 195 199 248 245 131 195 208 218 220 217 227 223 220 215 208 211 208 201 198 199 200 203 204 203 203 203 200 195 193 189 187 191 193 195 193 192 199 198 190 187 185 180 189 196 193 197 200 193 186 187 198 204 225 239 247 276 318 347 335 336 337 344 346 338 337 339 337 335 332 335 336 336 339 338 328 320 323 325 319 315 314 312
293 294 287 279 271 258 236 228 216 205 204 173 194 267 249 213 219 246 239 171 179 200 215 216 217 227 223 220 216 210 212 206 201 200 203 204 202 200 202 203 199 197 197 194 188 187 191 190 192 190 190 201 197 185 189 186 184 195 193 189 201 201 191 186 191 199 208 232 243 248 270 306 325 323 327 330 338 338 331 332 332 330 327 326 330 334 334 335 329 317 316 319 318 314 311 311 312
282 265 267 283 281 267 232 203 179 191 190 147 180 269 262 220 218 240 232 171 186 208 219 223 225 227 221 219 215 212 209 203 203 204 206 207 204 202 203 203 198 196 193 190 187 186 187 188 190 187 189 201 195 183 188 189 192 197 189 191 204 196 187 189 192 202 208 227 247 254 267 291 303 312 319 322 327 326 325 325 324 323 319 321 329 332 329 327 322 315 317 319 317 316 314 313 313
257 254 244 256 267 269 185 164 166 182 175 151 187 253 272 262 236 233 206 167 192 219 224 226 231 228 219 215 212 212 208 205 207 206 207 207 205 204 204 202 197 194 190 187 188 183 182 187 190 189 192 197 194 185 185 190 194 194 187 192 201 191 186 189 191 204 207 215 236 252 265 279 294 305 310 314 316 315 316 315 317 316 312 320 327 326 323 323 320 313 316 319 318 317 315 315 314
230 244 256 240 243 254 194 175 186 196 164 169 195 238 258 273 277 222 167 172 199 229 238 233 236 236 225 213 208 212 210 208 210 208 207 207 207 205 203 200 195 193 191 185 183 179 179 188 193 194 195 195 193 189 189 193 194 193 189 191 198 193 190 188 190 202 207 212 221 245 264 274 288 298 303 306 308 307 309 310 311 310 312 320 323 323 321 319 315 310 315 317 315 316 316 315 314
225 224 261 259 251 265 234 176 197 209 154 178 209 249 260 265 284 121 145 186 207 236 252 249 251 249 238 223 208 209 208 207 209 207 206 206 207 204 201 200 195 192 191 184 181 179 179 189 195 197 196 194 194 195 197 199 196 195 193 196 199 195 193 188 194 204 206 216 218 233 256 273 285 293 299 301 304 304 306 308 309 310 314 318 319 319 318 314 311 306 309 312 311 313 313 312 312
250 221 246 263 262 269 259 204 202 198 191 207 217 236 254 260 268 262 214 200 211 238 256 260 262 258 249 238 219 210 205 205 206 200 201 204 204 202 199 198 194 190 189 185 184 182 180 188 195 196 195 194 195 199 200 199 197 196 196 200 200 195 194 188 194 205 205 214 218 228 250 272 283 288 293 296 300 303 307 310 311 313 314 314 314 314 314 311 305 298 301 306 308 308 306 306 306
282 269 261 274 270 263 264 267 164 176 203 232 229 234 249 255 263 267 259 237 231 242 255 263 264 261 258 248 235 222 207 209 206 192 195 200 198 196 195 194 190 188 189 185 182 181 179 187 194 193 191 191 194 199 198 195 194 193 192 197 197 195 197 197 202 206 204 209 217 233 251 267 276 284 290 294 300 303 307 308 309 310 307 307 307 308 309 306 298 295 297 301 302 299 296 296 298
284 289 287 286 283 270 270 278 149 181 212 231 237 245 255 259 260 264 266 263 259 259 260 262 263 263 262 253 247 234 216 212 199 187 190 192 192 190 188 188 186 186 187 184 180 180 179 183 188 187 187 188 188 191 191 187 185 186 186 188 194 194 196 204 210 209 204 208 221 238 252 262 270 281 289 293 299 301 303 304 304 303 298 297 301 303 301 296 293 296 297 297 298 295 293 292 295
284 286 282 275 275 273 272 274 155 184 230 243 247 252 259 264 265 265 268 269 269 270 266 262 262 264 262 255 251 240 227 206 177 182 185 183 185 183 182 183 181 182 185 183 180 180 180 183 186 186 185 186 185 183 185 185 183 185 184 184 189 189 190 201 210 210 207 210 227 242 253 263 270 279 286 291 295 297 298 299 298 295 289 286 292 294 293 292 293 294 294 294 293 291 293 293 297
270 268 273 273 267 266 273 272 143 165 223 257 262 265 264 263 265 266 265 263 262 263 264 263 265 269 267 260 254 245 228 172 160 178 178 177 177 175 177 180 178 181 183 184 183 180 180 183 188 188 185 185 185 185 188 189 188 187 185 186 183 181 186 193 195 199 205 213 230 243 252 263 271 277 283 287 289 291 291 291 290 288 286 287 290 292 293 295 294 291 289 289 289 287 289 292 295
260 256 259 265 264 270 273 234 131 165 219 268 278 278 274 269 265 262 257 255 252 251 256 263 269 273 269 263 259 246 200 160 167 180 175 173 173 171 175 176 180 186 185 184 185 182 180 182 186 186 184 185 185 189 191 188 186 185 181 180 175 172 183 188 185 190 206 219 235 246 253 261 269 275 281 284 286 288 288 289 292 291 290 290 291 291 291 291 288 283 280 281 286 288 286 287 287
242 240 245 255 258 269 270 203 139 206 220 274 292 282 274 268 258 250 246 246 246 245 252 261 266 264 262 265 268 246 197 171 175 185 180 174 172 174 178 176 180 187 185 183 185 183 183 184 185 183 184 187 186 190 190 182 184 185 180 181 178 175 186 196 199 207 223 231 238 247 255 259 266 273 278 282 283 285 288 291 295 295 292 290 290 288 286 285 281 277 275 276 281 286 288 288 284
231 227 235 249 253 258 267 309 347 264 236 260 303 286 267 256 248 242 234 232 241 244 247 260 263 257 257 264 262 240 204 179 179 188 183 179 178 181 184 179 178 183 185 188 189 187 187 187 183 181 186 189 188 190 187 183 189 190 188 189 188 188 193 201 206 214 225 232 237 246 253 255 263 271 276 280 281 284 289 293 295 295 293 292 289 285 280 279 277 273 274 273 273 277 285 291 286
243 223 230 245 258 267 275 319 351 302 268 140 342 305 275 226 233 241 195 182 222 229 231 244 254 255 254 255 244 220 200 185 189 192 181 180 181 181 184 180 179 184 188 193 193 192 192 189 182 181 185 187 189 193 193 192 194 194 192 191 189 192 196 199 199 197 201 215 229 237 246 255 264 271 275 278 280 285 290 292 294 293 293 291 286 281 277 275 275 272 271 270 270 273 281 289 288
250 230 249 253 262 272 278 297 312 286 281 322 48 314 285 227 208 236 210 193 200 193 226 236 242 250 250 253 229 181 187 191 194 193 178 178 180 179 183 182 184 187 190 195 195 195 196 192 187 185 184 185 191 197 198 198 197 194 194 193 190 192 194 193 190 189 187 196 218 232 245 260 268 271 273 276 280 285 289 291 293 292 292 289 283 279 274 272 273 272 269 266 270 275 276 281 288
248 30 358 289 260 265 267 277 259 261 291 286 159 237 276 274 217 218 222 222 210 209 239 244 240 237 235 250 235 167 181 188 186 188 179 181 182 182 184 184 187 187 188 193 194 195 197 194 192 190 189 191 196 199 200 200 198 192 191 191 190 190 189 182 181 194 202 209 224 236 248 259 266 270 271 274 279 283 287 290 291 290 290 287 281 275 271 270 269 270 270 269 271 274 272 274 284
261 62 42 65 76 261 238 252 258 273 293 275 194 181 265 282 209 193 210 219 223 226 237 245 250 245 234 243 234 171 180 186 181 183 181 183 184 183 184 182 184 184 187 191 193 195 196 194 194 194 194 196 199 200 200 201 199 195 193 191 190 192 190 188 191 205 216 223 231 239 247 254 260 266 271 276 279 283 288 290 290 290 289 286 281 275 269 268 269 270 273 272 272 273 273 274 277
142 114 89 82 97 109 174 246 273 283 274 260 207 167 238 285 206 164 192 206 216 226 231 237 246 250 246 238 209 162 175 184 179 182 184 183 181 181 180 175 177 183 189 192 192 194 193 193 196 197 197 199 201 201 201 201 200 198 198 196 195 195 194 197 202 209 216 222 228 236 243 245 245 248 258 270 278 284 290 291 292 291 290 288 284 277 270 270 273 275 275 273 273 275 275 273 272
134 146 116 122 193 173 213 242 268 277 265 245 200 179 208 275 197 144 174 195 198 203 217 238 249 255 251 218 173 165 175 176 175 180 179 174 173 172 171 171 174 180 184 186 189 192 193 195 197 198 199 201 202 202 202 201 200 201 201 201 201 199 196 198 200 204 208 211 216 225 234 235 232 236 249 264 275 287 292 293 295 295 295 293 285 274 270 274 277 277 276 273 272 272 273 272 270
164 177 209 233 230 205 219 218 164 249 265 223 184 186 199 235 218 152 183 192 187 181 211 258 268 268 263 187 153 166 171 171 170 171 169 164 164 167 170 174 174 175 178 181 187 189 191 196 196 196 198 201 203 202 202 201 201 203 203 204 206 203 202 203 203 203 204 210 219 224 226 230 238 247 261 272 279 288 292 293 294 296 295 287 276 270 270 275 278 277 275 273 271 270 270 270 269
205 196 201 243 255 242 236 225 193 235 256 134 159 191 207 235 246 237 237 204 189 194 233 262 262 263 267 153 139 155 161 171 168 166 169 168 169 171 176 178 175 177 180 182 184 185 190 194 193 192 195 199 202 201 201 201 202 204 204 206 208 207 208 210 211 210 209 214 224 228 228 232 239 246 258 269 274 281 284 285 287 286 281 275 269 271 274 275 276 275 272 271 270 270 270 268 266
193 191 187 210 238 259 258 246 240 247 249 125 127 186 238 259 255 232 234 226 209 212 234 245 248 251 250 160 137 152 165 181 179 174 175 176 180 178 179 182 180 181 183 182 184 185 188 191 191 192 193 196 200 200 199 200 202 204 206 207 208 209 209 211 213 214 215 218 224 228 231 235 240 246 256 265 271 276 278 280 282 281 280 279 276 278 278 275 273 272 272 272 272 271 271 269 267
194 194 197 217 229 248 260 259 259 270 291 234 153 180 250 275 276 198 221 226 213 213 230 233 240 243 234 141 138 170 180 191 192 186 186 183 184 180 180 185 184 182 182 182 184 186 187 189 191 191 191 194 198 198 197 199 200 202 204 205 207 208 209 211 214 216 218 221 224 226 230 236 241 248 258 266 271 275 278 280 282 282 283 284 284 284 280 273 272 273 273 274 273 273 272 270 269
193 182 206 231 234 228 249 272 274 303 314 275 194 220 253 270 277 178 179 207 193 199 227 228 234 236 222 184 190 196 184 187 192 197 198 190 184 183 182 186 185 182 182 184 186 189 189 190 192 191 190 195 198 197 196 197 198 198 200 203 204 205 207 209 212 215 219 221 223 226 230 237 243 249 258 267 271 273 276 277 277 278 280 281 281 279 275 271 271 273 274 274 273 272 272 271 271
163 176 205 218 296 229 245 270 285 115 278 268 224 248 263 274 268 189 155 178 179 191 223 222 226 233 227 225 221 210 195 189 190 196 199 192 187 188 187 188 187 182 183 186 188 191 191 189 189 189 189 194 197 196 196 196 196 196 198 201 201 202 204 206 209 212 216 221 224 227 231 236 243 250 259 265 268 270 272 272 274 275 277 279 278 275 274 273 272 273 274 273 273 273 273 272 271
145 187 206 114 46 315 249 263 267 245 263 270 263 266 268 274 272 165 164 188 188 203 226 224 225 232 234 237 233 225 212 195 188 190 195 198 193 192 193 194 193 187 185 188 189 191 192 189 188 187 188 192 195 194 195 194 194 194 196 198 199 201 204 205 207 209 214 219 222 226 230 236 243 251 257 261 264 269 272 273 275 277 276 278 279 279 279 277 274 275 274 273 274 275 274 273 271
172 287 283 95 223 207 203 227 247 253 258 270 273 275 270 257 258 190 183 192 198 214 222 218 223 227 230 237 240 239 221 201 200 198 196 199 197 196 196 195 196 191 186 186 186 188 190 190 189 189 189 193 195 194 194 194 194 194 194 196 199 200 203 205 205 208 212 215 219 224 229 236 243 248 252 256 260 264 268 271 273 276 276 276 277 279 279 276 273 275 275 274 275 273 273 273 273
249 305 265 219 248 225 211 211 226 242 247 266 278 282 275 253 247 237 199 187 201 216 212 206 216 222 223 228 238 241 228 215 212 209 203 196 197 200 196 192 194 193 186 183 183 186 188 187 188 189 188 191 194 194 193 193 194 195 194 195 197 199 201 203 204 207 210 214 218 223 228 235 240 244 247 251 254 257 262 266 267 270 272 270 271 274 273 271 271 273 273 274 275 273 273 273 273
183 224 216 197 197 258 285 244 231 237 244 255 267 273 274 273 170 220 187 178 207 220 215 212 207 213 219 220 229 236 235 230 219 214 212 197 191 195 192 189 191 191 186 182 182 185 186 185 187 188 185 186 190 192 193 193 193 194 194 193 195 197 199 201 203 207 209 212 217 221 227 233 235 239 242 244 248 254 259 261 263 265 265 265 267 269 269 268 271 272 272 273 274 274 274 274 274
183 197 198 197 189 179 232 238 225 218 235 244 248 261 267 271 96 143 159 161 235 249 239 237 211 206 216 217 225 229 230 235 228 219 213 194 180 182 186 186 187 188 186 181 181 182 183 184 186 186 184 186 188 190 193 194 192 193 193 192 194 196 197 199 201 204 207 210 214 219 225 230 232 236 240 242 247 253 254 254 258 260 260 261 264 266 268 268 269 272 273 273 274 275 276 275 274
Height
803 805 804 805 803 804 802 802 812 805 805 808 797 800 800 795 800 802 803 803 804 799 797 800 800 800 804 808 807 804 805 808 812 817 822 820 821 822 821 822 822 824 825 827 829 829 829 828 828 828 829 829 829 830 830 831 831 831 831 831 831 831 831 831 831 831 831 830 830 830 830 830 830 830 830 830 830 830 830 830 830 830 830 830 830 831 830 830 829 829 828 828 827 826 826 825 825
804 805 804 805 802 806 803 801 815 806 805 808 795 797 797 797 803 802 801 801 802 797 798 801 801 802 805 806 805 806 807 808 810 813 818 820 822 822 822 822 823 824 825 827 828 829 829 828 828 828 829 829 829 830 830 830 830 830 831 831 831 831 831 831 831 831 831 831 830 830 830 830 830 830 830 830 830 830 830 830 830 831 831 831 831 831 830 830 829 829 828 828 827 827 826 825 825
805 805 804 805 802 804 802 805 815 807 806 804 794 795 795 800 803 799 797 798 799 799 801 803 805 806 807 810 807 809 809 808 809 812 817 820 820 821 822 822 823 824 825 826 828 829 829 828 828 829 829 829 829 830 830 830 830 830 830 830 831 831 831 831 831 831 831 831 830 830 830 830 830 830 830 830 830 830 830 830 830 831 831 830 831 831 830 829 829 828 828 827 827 827 826 825 825
804 805 804 804 804 805 806 811 811 807 807 798 795 797 795 799 798 796 798 800 801 801 804 806 809 807 809 812 808 808 808 808 810 812 816 819 819 820 822 822 824 825 825 827 828 828 828 828 828 829 829 829 829 829 830 830 830 830 830 830 830 830 830 830 831 831 831 830 830 830 830 830 829 829 829 829 830 830 830 830 830 830 830 830 830 830 829 829 828 828 827 827 827 826 825 825 824
805 806 804 803 807 807 807 810 806 807 805 794 796 797 794 794 793 797 801 803 803 803 806 806 809 808 810 811 807 809 809 809 812 812 815 818 819 820 821 822 824 825 826 827 828 828 827 828 828 828 828 829 829 829 829 829 830 830 830 830 830 830 830 830 830 830 830 830 830 830 830 830 829 829 829 829 830 829 830 830 829 830 830 829 829 829 828 828 827 826 826 826 826 825 824 824 824
805 806 804 804 805 805 810 812 806 803 796 790 795 794 792 791 791 798 803 804 805 805 807 807 808 809 810 809 807 809 809 811 812 814 816 818 819 820 821 823 824 825 826 827 827 827 827 827 827 828 828 828 828 828 829 829 829 829 829 829 829 829 829 830 830 830 830 829 829 829 829 829 829 829 829 829 829 829 829 829 829 829 829 828 828 828 827 827 826 826 825 825 825 824 824 823 823
806 807 805 807 806 806 813 812 803 797 791 789 794 793 790 790 791 798 804 806 808 808 809 808 808 810 810 807 808 809 811 812 813 815 816 817 819 820 822 823 824 825 825 826 826 826 826 826 827 827 827 828 828 828 828 828 829 829 829 829 829 829 829 829 829 829 829 829 829 829 829 829 828 829 829 829 829 829 829 829 828 828 828 827 827 827 826 826 826 825 825 824 824 824 823 823 823
807 807 804 810 811 809 812 807 798 793 792 792 793 794 791 790 793 799 803 805 808 808 809 809 809 813 809 805 808 811 812 813 814 816 816 817 818 820 822 823 824 824 825 825 825 825 825 826 826 827 827 827 827 827 827 828 828 828 828 828 828 828 828 828 828 828 828 828 828 828 828 828 828 828 828 828 828 828 828 828 828 827 827 826 826 826 825 825 825 825 824 824 824 823 823 823 823
807 807 806 811 811 808 809 804 796 790 791 792 792 795 794 793 793 797 802 802 804 805 806 807 810 812 808 805 807 809 812 813 814 816 817 818 818 820 821 823 823 823 824 824 824 824 825 825 826 826 827 827 827 827 827 827 827 828 828 828 828 828 828 827 827 827 827 827 827 827 827 827 827 827 827 827 828 827 827 827 827 827 826 826 826 825 825 824 824 824 823 823 823 823 823 823 823
806 807 808 811 809 809 808 799 794 791 790 791 792 794 794 794 794 796 799 801 801 804 805 805 809 810 806 805 806 807 810 812 814 815 816 817 818 820 821 822 822 823 823 823 824 824 825 825 826 826 826 827 827 827 827 827 827 827 827 827 827 827 827 827 827 826 826 826 826 826 826 826 826 826 826 826 827 826 827 826 826 826 826 826 825 825 825 824 824 823 823 822 822 822 822 822 822
808 806 807 813 812 810 804 795 791 790 790 791 792 792 793 793 795 796 797 798 798 802 806 807 809 806 805 804 803 807 809 811 813 814 815 816 818 819 820 821 821 822 822 822 823 824 825 825 826 826 826 827 827 827 827 826 826 827 827 826 827 826 827 826 826 826 826 826 825 826 826 826 826 826 826 826 826 826 826 826 826 826 825 825 825 825 824 824 823 823 823 822 822 821 821 821 821
811 806 807 815 810 802 798 797 794 791 792 793 793 791 791 793 796 797 797 798 798 802 804 806 805 802 806 804 802 807 809 810 812 813 814 816 818 819 820 820 821 821 822 822 823 824 825 825 825 826 826 827 827 827 826 826 826 826 826 826 826 826 826 826 826 826 825 825 825 825 825 825 825 825 825 825 825 825 825 825 825 825 825 825 824 824 823 823 823 822 822 821 821 821 820 820 820
810 805 808 812 804 799 799 800 797 795 794 789 789 789 791 793 796 795 795 796 797 801 801 799 799 801 804 801 802 807 807 809 811 812 813 816 818 818 820 820 821 821 822 822 823 824 824 825 825 826 826 826 826 826 826 826 826 825 825 826 826 826 826 826 825 825 825 824 824 824 824 824 825 825 825 825 825 825 825 825 825 824 824 824 824 824 823 823 822 822 821 820 820 819 819 819 818
806 802 808 809 801 801 801 801 797 799 795 785 788 790 791 793 793 792 793 797 796 797 797 795 798 804 803 799 801 801 803 808 809 811 813 816 817 817 819 819 820 821 822 823 823 824 824 825 825 825 826 826 826 826 826 826 825 825 825 825 826 826 826 826 825 825 824 824 824 824 824 824 824 824 824 824 824 824 824 824 824 824 824 824 824 823 823 822 822 821 821 820 819 818 818 817 817
804 801 806 809 804 801 800 800 798 802 794 786 792 792 793 793 792 793 793 796 795 794 795 796 798 802 800 796 798 796 800 806 807 811 812 815 816 817 818 818 820 820 821 822 823 823 824 824 824 825 825 825 826 825 825 825 825 825 825 825 826 826 826 826 826 825 825 825 824 824 824 824 824 823 824 824 823 823 823 823 823 823 823 823 823 823 823 822 822 821 821 820 819 818 817 817 816
803 802 807 809 806 802 799 797 798 803 794 788 793 792 795 794 793 796 794 796 797 795 797 797 797 798 795 795 798 798 800 804 807 810 811 814 815 817 818 819 820 820 821 821 822 822 822 824 824 825 825 825 825 825 825 825 825 825 825 826 826 826 826 826 826 826 826 826 825 825 825 824 824 824 824 823 823 823 823 823 822 822 822 822 822 822 822 821 821 821 820 820 819 818 817 816 815
802 805 810 808 804 800 797 796 797 799 792 790 795 793 795 795 795 796 795 797 797 797 797 796 794 794 795 796 799 800 801 804 806 809 810 813 814 816 817 818 819 819 819 819 820 821 821 822 823 823 823 824 824 824 825 825 825 825 826 826 826 827 826 827 827 827 826 826 826 825 825 825 825 825 824 824 823 823 823 823 822 822 822 822 821 821 821 820 820 820 819 819 818 817 816 816 815
805 806 809 806 799 794 791 790 790 791 790 791 793 792 793 794 796 796 797 798 797 796 795 794 793 793 795 798 800 801 802 804 805 807 808 810 812 813 814 815 816 816 817 818 818 819 820 820 821 822 822 822 823 823 824 824 825 825 825 826 826 827 826 827 827 827 827 826 826 826 826 826 825 825 825 824 824 824 823 823 823 822 822 822 822 821 821 820 820 819 818 818 817 816 815 814 814
804 803 806 802 792 788 786 786 786 788 790 789 790 791 792 791 791 795 797 795 795 796 793 793 794 792 794 797 799 800 801 803 804 805 806 807 808 808 810 811 812 813 814 815 816 817 818 819 819 820 820 821 821 822 823 824 824 824 825 825 826 826 826 826 826 827 826 826 826 826 826 826 826 825 825 825 824 824 823 823 823 822 822 822 821 821 820 820 819 818 818 817 816 816 815 814 814
800 801 805 796 787 786 784 785 786 787 788 789 790 790 792 789 788 794 796 791 790 790 788 789 791 788 788 792 796 798 800 801 802 803 803 804 805 805 806 807 809 810 812 813 814 815 816 817 818 818 819 819 820 821 822 823 823 824 824 825 825 825 826 826 826 826 826 826 826 826 826 825 825 825 825 824 824 824 824 823 823 822 822 821 821 820 820 819 818 818 817 817 816 816 815 814 813
799 800 800 790 787 789 785 785 787 787 789 790 789 792 793 788 788 792 792 792 788 781 779 780 782 781 780 787 792 795 797 798 800 800 801 801 802 803 803 805 806 808 810 811 812 813 814 816 816 817 817 818 819 820 821 821 822 823 823 824 824 825 825 825 826 826 826 826 826 826 826 825 825 825 825 825 824 824 824 824 823 823 822 822 821 821 820 819 818 818 817 816 816 816 815 814 813
800 795 789 786 788 790 786 785 789 790 792 792 791 793 791 787 789 789 789 790 781 773 771 770 771 773 773 780 787 791 793 794 796 797 797 798 799 800 801 802 804 806 808 809 809 811 812 814 814 815 816 817 818 819 820 820 821 822 822 823 823 824 824 825 825 826 826 826 826 826 825 825 826 826 825 825 825 825 825 824 824 823 823 822 822 821 821 820 819 818 818 817 816 815 814 813 812
800 791 784 785 787 789 786 787 792 792 793 793 791 789 787 789 789 784 785 781 771 767 768 767 768 769 770 776 782 786 788 790 790 791 792 793 794 796 798 799 801 803 804 805 807 808 810 811 812 813 814 815 816 817 818 819 820 821 821 821 823 823 824 824 825 825 826 826 826 825 825 826 826 826 826 825 825 825 825 824 824 824 823 823 822 822 820 819 819 818 817 816 816 815 814 813 812
801 794 786 786 787 788 786 788 792 792 792 790 789 789 789 790 786 780 778 771 766 766 766 768 769 770 772 775 779 781 783 785 785 786 788 789 790 792 795 797 798 800 801 802 804 805 807 808 810 811 812 813 814 816 817 818 819 819 820 821 822 822 823 823 824 825 825 825 825 825 825 825 826 826 825 825 825 825 825 824 824 824 823 823 822 821 820 819 818 817 817 816 815 814 813 812 811
798 794 787 787 789 787 785 788 791 791 791 789 790 792 788 785 783 780 773 766 765 765 765 767 769 770 772 773 775 778 779 781 782 784 786 787 788 791 793 794 796 797 797 799 801 802 803 805 807 809 811 812 813 815 816 817 818 818 819 820 820 821 822 822 823 824 825 824 824 824 824 824 825 825 824 824 824 824 824 824 824 824 823 823 822 821 820 819 818 817 816 815 814 813 812 811 810
793 791 788 788 788 785 784 787 788 788 788 789 791 790 785 782 784 779 765 761 762 761 763 764 767 769 769 770 772 773 775 776 778 780 782 785 787 788 789 791 792 793 794 796 798 799 800 802 804 807 809 810 812 813 815 816 816 817 818 819 819 820 821 821 822 823 823 823 823 823 823 823 823 823 823 823 823 824 824 824 824 823 823 822 821 820 820 819 818 817 816 815 813 812 811 810 809
792 793 790 789 787 783 784 785 783 785 786 787 789 788 782 782 788 776 757 756 757 758 762 761 764 767 766 768 768 769 771 772 774 777 779 782 783 783 785 787 788 789 791 793 794 796 797 799 802 804 806 808 810 811 813 815 815 817 817 818 819 819 820 820 821 822 822 822 822 822 822 822 823 822 823 823 823 823 824 824 823 822 822 822 821 820 819 819 818 817 816 814 813 811 810 809 808
793 795 792 787 783 781 781 783 781 783 784 783 785 787 781 783 788 770 754 757 757 758 760 760 762 763 763 764 764 766 767 768 771 773 775 775 775 777 779 781 782 785 787 789 791 793 794 797 800 802 804 805 808 810 811 813 814 815 816 817 818 818 819 819 820 821 821 821 821 822 822 822 822 822 822 822 822 823 823 823 822 822 822 821 820 819 819 818 817 817 816 814 812 811 810 808 807
795 796 794 785 779 779 775 776 778 780 781 779 784 788 779 778 776 757 750 757 756 758 759 759 760 760 760 760 761 763 763 765 768 768 768 768 770 772 773 775 778 782 784 786 788 790 792 795 798 800 802 804 806 809 810 811 812 813 815 816 816 817 818 818 819 820 820 820 821 821 821 821 821 821 821 821 821 822 822 822 822 822 821 821 820 819 818 818 818 817 816 814 812 811 809 808 807
796 793 794 789 784 777 766 769 777 780 780 777 784 787 769 761 760 748 746 753 755 759 758 757 757 756 757 756 757 758 759 761 761 762 763 764 767 768 769 772 775 778 780 784 786 788 790 793 796 798 800 802 804 807 808 809 811 812 813 814 815 816 817 817 817 818 819 819 820 820 820 820 820 820 820 820 821 821 822 822 822 822 821 820 820 819 819 818 818 816 815 814 812 810 809 807 806
794 792 793 792 791 778 764 770 777 779 780 776 783 788 766 749 748 743 743 749 753 756 754 754 753 752 753 752 754 754 755 756 755 757 759 761 763 764 766 769 771 774 777 780 782 785 788 790 793 795 798 800 802 805 806 808 809 810 812 813 814 814 815 816 816 817 818 819 819 819 818 819 818 818 819 820 821 821 822 822 822 822 821 820 819 819 819 818 817 816 815 813 811 810 808 806 805
789 796 794 785 786 778 766 771 772 772 778 778 781 783 766 749 742 739 742 746 750 751 749 749 748 747 747 747 748 749 749 750 751 753 755 757 759 761 763 765 768 771 773 776 779 783 785 787 790 792 795 798 800 802 804 805 807 808 810 811 812 812 813 814 815 816 817 818 818 818 817 818 818 818 819 820 821 821 821 821 821 821 820 819 819 818 818 817 817 816 814 813 811 809 807 805 804
783 793 793 781 780 774 765 770 770 768 774 778 778 773 760 749 742 741 745 745 748 749 746 745 744 741 740 741 742 743 744 745 747 748 750 753 755 757 759 762 765 767 771 774 776 779 782 784 787 790 793 795 798 800 801 803 805 807 808 809 810 810 811 812 813 815 816 817 817 817 817 817 817 817 818 819 820 820 820 820 820 819 819 818 818 818 818 817 816 815 814 813 811 809 807 805 803
781 783 786 779 774 771 768 769 770 770 773 774 774 772 761 749 743 743 745 745 747 747 744 742 739 735 733 734 735 736 737 738 739 741 745 749 751 754 757 760 763 765 769 771 773 776 779 782 785 788 791 793 796 797 799 801 803 805 806 807 808 809 810 811 812 814 815 816 816 816 816 817 817 817 818 818 819 819 819 819 818 818 818 818 818 817 816 816 815 815 814 812 811 809 807 805 803
779 777 780 776 770 769 765 763 768 771 774 773 771 769 760 750 745 742 741 742 743 742 740 738 733 729 727 728 728 728 729 730 732 735 740 744 747 750 754 757 760 763 766 769 771 774 777 780 782 786 789 791 793 795 797 800 801 804 805 805 806 807 808 809 811 812 814 814 814 814 815 815 816 816 817 817 817 817 817 817 817 818 818 818 817 816 815 815 815 814 813 811 809 808 807 805 802
776 775 778 779 774 771 760 759 767 768 772 774 768 762 754 748 745 741 737 736 737 735 734 733 727 723 723 723 722 722 723 724 727 732 736 740 743 746 750 753 757 760 763 766 768 771 774 777 780 783 786 788 791 793 795 797 800 802 803 803 804 805 806 807 809 810 811 812 812 812 813 814 814 814 815 815 816 816 816 816 817 817 818 817 816 815 815 815 814 813 811 809 808 807 805 804 801
775 777 780 780 778 773 757 758 769 768 770 767 758 757 751 745 742 738 736 734 733 732 729 727 721 718 719 719 717 717 719 721 724 730 733 736 740 743 747 750 754 757 760 763 765 768 770 773 777 780 783 785 787 790 792 794 796 798 799 800 801 802 804 805 807 808 809 810 810 810 811 812 812 813 813 814 814 814 815 815 816 817 817 816 815 814 814 813 812 811 809 808 807 805 804 802 801
776 780 782 780 776 769 754 758 770 770 774 766 754 755 749 743 741 735 734 733 731 728 725 721 716 714 714 712 712 713 716 720 724 728 731 734 738 741 745 747 750 753 756 759 761 765 768 770 773 776 779 782 784 787 789 791 793 795 796 797 799 801 802 804 805 806 807 807 808 809 809 810 810 811 812 813 813 813 814 815 815 815 815 814 813 812 812 811 810 809 808 807 806 804 802 801 799
779 781 785 782 772 763 755 762 773 774 775 766 755 757 748 739 738 732 730 728 725 722 718 715 712 712 710 707 708 709 714 720 723 726 729 732 736 739 743 745 747 750 753 756 759 762 765 768 771 774 777 779 782 784 786 789 791 792 794 796 798 800 801 802 803 804 804 805 806 807 807 808 809 810 810 811 812 812 813 814 814 813 813 812 811 811 810 809 809 808 808 806 805 803 801 799 798
781 781 785 779 767 766 763 765 775 773 771 766 762 761 749 736 731 725 721 718 717 716 714 712 710 710 707 704 706 707 711 717 721 724 727 730 735 737 739 742 745 749 751 753 756 759 762 765 768 771 774 776 779 782 784 787 788 790 792 794 796 798 799 800 802 802 803 803 804 805 805 806 807 808 809 810 811 811 812 812 811 811 811 810 810 809 808 808 808 807 807 806 804 802 800 798 797
778 778 779 772 764 765 761 763 770 765 763 769 767 757 737 724 721 716 711 713 714 714 714 713 709 706 705 703 704 706 708 712 716 720 724 727 730 733 736 740 742 746 748 750 753 755 758 762 765 768 771 774 777 779 782 783 785 787 790 792 795 797 798 799 800 801 801 802 802 803 803 804 805 806 807 808 809 810 810 810 809 808 808 808 808 808 807 807 807 806 806 804 803 801 798 797 795
774 770 768 765 762 761 760 766 774 770 765 768 769 759 729 708 711 710 708 714 715 716 717 714 708 702 702 702 700 703 706 708 711 714 719 723 726 730 733 736 739 742 744 746 750 752 755 759 763 766 768 772 774 776 779 780 782 785 788 790 793 795 796 797 798 798 799 800 800 801 802 802 804 805 806 807 807 808 808 807 807 806 806 806 806 806 805 805 805 804 804 803 801 800 797 795 793
775 770 768 766 765 767 769 772 779 777 767 762 769 772 742 711 711 710 707 712 711 712 713 708 704 700 698 696 695 700 704 705 708 710 714 719 722 726 729 732 735 737 740 744 747 750 753 757 760 763 766 769 771 773 775 777 780 783 785 787 790 791 793 794 795 796 797 798 798 799 800 801 802 803 804 805 805 805 805 804 804 804 803 803 803 803 803 803 803 802 802 801 799 798 796 793 791
774 776 777 772 771 774 775 777 781 775 766 762 766 774 757 725 715 708 705 711 709 707 706 699 698 697 695 693 691 695 700 701 704 707 710 714 717 720 724 727 730 733 737 740 743 747 749 753 757 759 762 765 767 770 772 775 777 780 782 785 787 788 790 791 792 793 794 795 796 797 798 800 800 801 802 803 803 803 803 802 802 801 801 801 801 801 801 800 800 800 800 799 797 795 794 792 790
776 781 779 775 776 777 776 779 779 772 773 772 762 770 765 727 706 704 702 709 710 705 702 696 692 690 690 689 688 691 695 697 700 703 706 709 712 716 719 723 727 730 734 736 739 743 746 750 754 756 759 761 764 766 769 772 775 777 779 781 784 785 787 789 790 791 791 792 794 795 797 798 799 799 800 800 800 800 800 800 800 799 799 799 799 798 798 798 797 797 796 796 794 793 792 790 788
779 782 778 779 780 778 780 780 778 777 779 773 760 766 766 726 697 705 710 710 709 702 696 692 687 685 685 685 686 690 693 695 697 699 702 706 709 713 717 720 724 727 730 733 736 740 744 747 750 753 755 758 760 763 765 769 772 774 776 778 780 782 784 786 788 789 790 791 792 794 795 797 797 798 798 798 798 798 798 798 797 797 797 796 796 795 795 795 794 793 793 792 791 789 789 787 786
781 780 777 781 780 779 782 777 778 785 773 756 749 753 762 738 703 701 708 701 695 693 691 688 683 682 681 681 684 688 691 694 697 698 700 704 707 711 715 718 721 725 728 731 734 737 740 743 746 749 752 754 756 759 762 765 767 770 772 774 776 779 781 783 785 786 787 789 790 792 793 794 795 795 796 796 796 796 795 795 795 794 794 793 793 793 792 791 791 791 790 789 788 787 785 784 783
782 778 776 779 778 778 783 779 785 790 761 737 735 739 751 742 707 693 693 685 682 683 686 685 681 680 678 679 683 686 689 693 696 698 700 703 707 710 713 716 719 722 725 728 730 733 736 739 742 745 748 750 752 755 758 760 763 766 768 771 773 776 778 780 782 783 785 786 788 789 791 792 792 792 793 793 793 793 793 793 792 792 791 791 791 790 790 789 788 788 788 786 785 783 782 782 781
782 777 777 782 780 778 782 779 779 774 748 731 732 737 740 722 695 687 685 681 680 677 679 680 679 679 676 678 683 686 690 693 695 698 700 702 705 707 710 713 715 718 720 723 726 729 732 735 738 740 743 745 747 750 753 755 758 761 764 767 769 772 774 776 778 780 782 783 785 786 788 789 789 789 790 790 790 790 790 791 790 790 790 789 789 788 787 786 786 785 784 783 781 780 779 779 778
779 771 773 779 779 782 782 772 764 752 736 733 739 742 735 711 687 681 679 677 676 674 676 677 675 677 676 677 683 687 691 694 695 696 697 699 702 703 706 709 711 713 715 719 722 724 728 731 733 736 738 741 742 744 748 751 754 757 760 764 766 768 771 773 775 777 779 781 782 783 784 785 786 786 787 787 787 788 788 788 788 788 787 787 786 785 784 783 783 782 781 780 778 777 777 776 775
770 759 761 766 764 771 772 759 751 743 732 735 748 744 724 702 683 671 668 667 669 673 673 672 673 674 674 678 684 688 691 693 694 695 695 696 698 700 703 705 707 709 711 714 717 720 723 725 728 731 733 736 737 740 743 746 749 753 757 760 762 765 767 769 772 774 776 778 779 781 782 782 783 784 784 784 784 785 785 785 785 785 784 783 782 781 781 780 780 779 778 777 776 775 774 774 773
762 755 761 762 752 753 757 747 743 751 750 740 741 732 701 682 672 664 668 666 664 671 671 670 673 671 673 678 681 684 687 690 693 694 694 695 696 698 699 701 703 705 707 709 712 715 717 719 722 725 729 731 733 736 739 742 745 749 752 755 758 760 763 766 768 771 773 775 777 778 779 780 780 780 781 781 781 782 783 783 783 783 782 781 780 779 778 778 777 776 775 774 773 773 772 771 770
756 759 759 755 747 747 753 751 745 758 761 733 718 714 692 679 669 659 667 669 666 671 669 668 670 668 671 674 675 679 682 685 689 691 693 694 694 696 696 698 699 699 701 703 706 708 711 714 717 721 725 727 729 732 735 738 741 744 748 751 753 756 758 762 764 767 770 772 774 775 776 777 777 777 777 778 779 779 780 781 780 780 779 778 777 776 776 775 775 774 773 772 771 770 770 768 767
753 758 751 746 751 753 755 759 754 755 754 725 705 705 694 687 677 662 667 673 669 669 666 665 668 668 670 671 671 675 677 681 685 687 690 691 692 693 693 694 695 695 696 698 701 705 708 711 713 717 720 722 725 728 731 734 737 740 743 746 748 751 754 758 761 764 767 769 771 772 773 774 774 774 774 775 776 777 778 778 778 777 776 776 775 774 773 773 772 771 770 769 768 768 767 765 764
753 753 749 748 754 754 752 759 760 757 753 728 706 699 687 679 672 665 669 672 667 664 662 664 667 667 668 668 668 670 673 677 680 681 685 686 687 688 688 690 692 692 693 695 699 702 705 708 710 714 717 718 722 725 728 731 733 735 738 741 744 747 750 754 757 760 763 765 768 769 770 771 771 772 772 773 774 775 775 775 775 774 774 773 772 772 771 770 770 769 768 767 766 765 764 762 762
759 756 752 749 749 745 741 745 744 744 745 731 715 703 677 656 653 655 660 663 661 659 659 662 664 662 664 665 666 667 669 672 674 675 678 680 683 684 685 687 689 690 691 692 696 699 701 704 707 711 714 716 719 722 724 727 729 732 735 737 741 743 746 750 753 756 759 762 764 766 767 768 769 769 770 771 772 772 772 772 772 772 772 771 771 769 769 768 768 767 766 765 763 763 761 759 758
753 756 751 749 748 746 745 740 730 730 736 731 727 714 671 639 640 644 648 655 655 654 656 657 658 657 658 661 663 664 666 667 669 670 672 675 678 680 682 684 686 688 689 689 692 695 698 701 703 706 709 711 714 717 720 723 725 728 731 734 737 739 742 746 749 752 755 758 760 762 763 765 766 767 767 768 769 769 769 770 770 770 770 769 768 768 767 766 765 764 763 762 761 760 758 757 755
728 735 734 734 737 742 749 743 727 726 730 722 723 716 670 635 639 643 644 651 651 650 654 654 655 656 657 658 659 660 662 663 664 665 668 671 674 678 680 681 683 684 685 686 688 691 694 696 699 702 705 706 709 712 715 718 721 724 727 730 733 735 738 741 745 749 752 754 756 758 760 761 763 764 764 765 766 766 767 767 767 767 767 767 766 765 765 764 762 761 760 759 758 756 755 753 752